Orbital Elements at Epoch 2459200.5 (2020-Dec-17.0) TDB
Reference: JPL 30 (heliocentric ecliptic J2000)
Element | Value | Uncertainty (1-sigma) | Units |
e | .09759797675869328 | 4.4914e-08 | |
a | 3.0632934422339 | 2.1015e-08 | au |
q | 2.764322200053698 | 1.4425e-07 | au |
i | 8.363961862044604 | 4.2463e-06 | deg |
node | 209.5063198602641 | 2.7202e-05 | deg |
peri | 144.2267735148015 | 3.3364e-05 | deg |
M | 339.5453134114922 | 1.9743e-05 | deg |
tp | 2459311.768352428988 (2021-Apr-07.26835243) | 0.0001078 | TDB |
period | 1958.3094906446 5.36 | 2.0151e-05 5.517e-08 | d yr |
n | .1838320253871118 | 1.8917e-09 | deg/d |
Q | 3.362264684414101 | 2.3066e-08 | au |
|
| | Orbit Determination Parameters
Additional Information
|